Weather History for Grand Forks, ND

Change the Weather History Date:

Wednesday, August 7, 2013

  Actual Average Record
Temperature  
Mean Temperature 59 °F 69 °F  
Max Temperature 72 °F 82 °F 104 °F (1983)
Min Temperature 45 °F 56 °F 41 °F (1972)
Degree Days  
Heating Degree Days 6 1  
Month to date heating degree days 21 7  
Since 1 June heating degree days 127 138  
Since 1 July heating degree days 50 35  
Cooling Degree Days 0 5  
Month to date cooling degree days 1 35  
Year to date cooling degree days 289 268  
Since 1 June cooling degree days 280 251  
Growing Degree Days 8 (Base 50)    
Moisture  
Dew Point 50 °F    
Average Humidity 70    
Maximum Humidity 93    
Minimum Humidity 47    
Precipitation  
Precipitation 0.01 in 0.09 in 2.29 in (1984)
Month to date precipitation 0.12 0.61  
Year to date precipitation 13.47 12.96  
Snow  
Snow 0.00 in 0.00 in - ()
Month to date snowfall 0.0 0.0  
Since 1 June snowfall 0.0 0.0  
Since 1 July snowfall 0.0 0.0  
Snow Depth 0.00 in    
Sea Level Pressure  
Sea Level Pressure 29.97 in    
Wind  
Wind Speed 5 mph (North)    
Max Wind Speed 21 mph    
Max Gust Speed 24 mph    
Visibility 10 miles    
Events Rain    
T = Trace of Precipitation, MM = Missing Value Source: NWS Daily Summary

Daily Weather History Graph

Daily Weather History Graph

Search for Another Location

Airport:

Trip Planner

Search our weather history database for the weather conditions in past years. The results will help you decide how hot, cold, wet, or windy it might be!

Date:

Astronomy

Aug. 07, 2013 Rise Set
Actual Time 6:13 AM CDT 8:54 PM CDT
Civil Twilight 5:37 AM CDT 9:29 PM CDT
Nautical Twilight 4:52 AM CDT 10:14 PM CDT
Astronomical Twilight 3:59 AM CDT 11:06 PM CDT
Moon 7:11 AM CDT (8/7) 8:51 PM CDT (8/7)
Length of Visible Light 15h 51m
Length of Day
14h 41m
New Moon, 1% of the Moon is Illuminated
Aug 7
New Moon
Aug 14
First Quarter
Aug 20
Full
Aug 28
Last Quarter
Sep 5
New

Hourly Weather History & Observations

Time (CDT) Temp. Windchill Dew Point Humidity Pressure Visibility Wind Dir Wind Speed Gust Speed Precip Events Conditions
12:53 AM 52.0 °F - 46.9 °F 83% 29.90 in 10.0 mi NW 5.8 mph - N/A   Clear
1:53 AM 51.1 °F - 48.0 °F 89% 29.91 in 10.0 mi NW 3.5 mph - N/A   Clear
2:53 AM 51.1 °F - 48.9 °F 92% 29.92 in 10.0 mi West 3.5 mph - N/A   Clear
3:53 AM 51.1 °F - 48.0 °F 89% 29.93 in 10.0 mi WNW 3.5 mph - N/A   Clear
4:53 AM 48.9 °F - 46.0 °F 90% 29.94 in 10.0 mi NW 3.5 mph - N/A   Clear
5:53 AM 46.0 °F 44.8 °F 45.0 °F 96% 29.96 in 10.0 mi NW 3.5 mph - N/A   Partly Cloudy
6:53 AM 46.9 °F - 45.0 °F 93% 29.98 in 10.0 mi WNW 4.6 mph - N/A   Partly Cloudy
7:53 AM 53.1 °F - 50.0 °F 89% 29.98 in 10.0 mi Calm Calm - N/A   Partly Cloudy
8:53 AM 57.0 °F - 51.1 °F 81% 29.99 in 10.0 mi North 5.8 mph - N/A   Partly Cloudy
9:53 AM 61.0 °F - 48.9 °F 64% 29.99 in 10.0 mi Calm Calm - N/A   Partly Cloudy
10:53 AM 62.1 °F - 48.0 °F 60% 30.00 in 10.0 mi Calm Calm - N/A   Scattered Clouds
11:53 AM 66.0 °F - 48.9 °F 54% 30.00 in 10.0 mi Calm Calm - N/A   Scattered Clouds
12:53 PM 70.0 °F - 50.0 °F 49% 29.99 in 10.0 mi Variable 6.9 mph - N/A   Scattered Clouds
1:53 PM 70.0 °F - 48.9 °F 47% 29.98 in 10.0 mi Variable 5.8 mph - N/A   Scattered Clouds
2:53 PM 69.1 °F - 50.0 °F 51% 29.95 in 10.0 mi Calm Calm - N/A   Mostly Cloudy
3:53 PM 66.0 °F - 54.0 °F 65% 29.98 in 10.0 mi North 12.7 mph - 0.00 in Rain Light Rain
4:53 PM 64.9 °F - 55.0 °F 70% 29.98 in 10.0 mi NE 12.7 mph - 0.01 in   Mostly Cloudy
5:53 PM 64.9 °F - 54.0 °F 68% 29.98 in 9.0 mi ENE 8.1 mph - N/A   Mostly Cloudy
6:53 PM 64.0 °F - 52.0 °F 65% 29.98 in 10.0 mi NE 9.2 mph - N/A   Mostly Cloudy
7:53 PM 63.0 °F - 53.1 °F 70% 29.98 in 10.0 mi NE 8.1 mph - N/A   Mostly Cloudy
8:53 PM 62.1 °F - 54.0 °F 75% 29.98 in 10.0 mi ENE 3.5 mph - N/A   Overcast
9:53 PM 62.1 °F - 54.0 °F 75% 29.99 in 10.0 mi East 3.5 mph - N/A   Overcast
10:53 PM 59.0 °F - 55.9 °F 90% 30.00 in 10.0 mi Calm Calm - N/A   Overcast
11:53 PM 55.9 °F - 54.0 °F 93% 30.01 in 10.0 mi NNW 4.6 mph - N/A   Overcast